Location: ?ejeti?ky
(50.4060°N, 14.9016°E)
Time: 23:06:57
(UTC+00:00)

X-37B - Pass Details

Date: 08 December 2021
Orbit: 334 x 337 km, 45.0° (Epoch: 11 January)

Event Time Altitude Azimuth Distance (km) Brightness Sun altitude
Rises 17:35:06 0° 233° (SW) 2,099 5.3 -24.0°
Reaches altitude 10° 17:37:23 10° 216° (SW) 1,264 3.7 -24.4°
Enters shadow 17:37:40 12° 212° (SSW) 1,177 3.5 -24.4°
